Regional Weather Roundup
Issued by NWS Newport/Morehead, NC

Current Version | Previous Version | Graphics & Text | Print | Product List | Glossary Off
Versions: 1 2 3 4 5 6 7 8 9 10 11 12 13 14 15 16 17 18 19 20 21 22 23 24 25 26 27 28 29 30 31 32 33 34 35 36 37 38 39 40 41 42 43 44 45 46 47 48 49 50

000
ASUS42 KMHX 291713
RWRMHX
WEATHER ROUNDUP FOR EASTERN NORTH CAROLINA
NATIONAL WEATHER SERVICE NEWPORT/MOREHEAD CITY NC
100 PM EDT FRI APR 29 2016

NOTE: "FAIR" INDICATES FEW OR NO CLOUDS BELOW 12,000 FEET
WITH NO SIGNIFICANT WEATHER AND/OR OBSTRUCTIONS TO VISIBILITY

NCZ015>017-031-032-045>047-102-103-291800-
NORTH COAST

CITY           SKY/WX    TMP DP  RH WIND       PRES   REMARKS
EDENTON        CLOUDY    63  60  91 NW3       30.00F
ELIZABETH CITY CLOUDY    61  56  83 N5        29.98F
KITTY HAWK     CLOUDY    62  56  80 N9        29.96F
MANTEO         NOT AVBL

$$

NCZ045>047-081-094-103-104-291800-
CENTRAL COAST

CITY           SKY/WX    TMP DP  RH WIND       PRES   REMARKS
FRISCO         PTSUNNY   68  61  78 N7        29.96F
SWANQUARTER    NOT AVBL

$$

NCZ095-097-098-100-101-291800-
SOUTHERN COAST

CITY           SKY/WX    TMP DP  RH WIND       PRES   REMARKS
BEAUFORT       CLOUDY    69  61  75 N8        29.97F
CEDAR ISLAND   NOT AVBL
JACKSONVILLE   CLOUDY    69  60  73 NE9       29.98F
PINEY ISLAND   NOT AVBL
WILMINGTON     MOSUNNY   78  63  59 NE15      29.97F


$$

NCZ011>013-027>030-043-044-078>080-089-090>093-098-291800-
COASTAL PLAIN

CITY           SKY/WX    TMP DP  RH WIND       PRES   REMARKS
AHOSKIE        CLOUDY    58  56  92 CALM      30.01F
CLINTON        MOSUNNY   72  62  70 NE6       30.00S
ELIZABETHTOWN  SUNNY     78  58  48 N3        29.97F
GOLDSBORO      CLOUDY    66  66 100 NE9       29.98F
GREENVILLE     CLOUDY    63  59  88 CALM      30.02F
HAVELOCK       PTSUNNY   68  61  78 NE8       29.99F
KENANSVILLE    CLOUDY    67  59  76 CALM      30.01F
KINSTON        CLOUDY    64  59  82 CALM      30.01F
NEW BERN       CLOUDY    64  59  83 NE6       30.00F
RICHLANDS      CLOUDY    68  60  75 NE6       30.00F
ROCKY MOUNT    CLOUDY    61  57  87 NE8       30.01S
WASHINGTON     CLOUDY    61  58  90 E6        30.00F
WHITEVILLE     SUNNY     79  61  54 N3        29.96F

$$

AMZ130-135-150-152-154-156-158-170-250-252-270-ANZ085-086-088-633-658-670-291800-
MARINE OBSERVATIONS

STATION/POSITION TIME  TEMP    WIND        PRES    WAVE   SWELL
                       AIR SEA DIR/SP/G            HT/PER HT/PER
                 (UTC) (F)     (DEG/KT/KT) (MB)    (FT/S) (FT/S)
CHESAPEAKE LIGHT 1700   53      10/ 13/ 14 1016.1
64 E VA BEACH    1650   54 54  350/ 10/ 12 1014.3    4/ 6   3/ 6
DUCK             1600   55 66  350/ 11/ 12 1015.7
2 E DUCK         1611      58                N/A     4/ 7
OREGON INLET     1600   59 62  350/ 11/ 14 1015.4
13E OREGON INLT  1700      58                N/A     4/ 5   3/ 5
HATTERAS CG      1600   63 69  360/ 13/ 15 1014.8
DIAMOND BUOY     1650   64 70  360/ 16/ 17 1014.0    3/ 5   2/ 9
CAPE LOOKOUT     1700   67      10/  9/ 11 1014.8
BEAUFORT LAB     1600   64 67   10/ 10/ 14 1015.1
30 SE NEW RVR IN 1625      67                N/A     3/ 6
27 SE WRIGHTSVLE 1608   68 69   40/ 14/ 19 1014.8
5 SE WRIGHTSVLE  1608   69 67   60/ 14/ 17 1015.8
225 S CAPE HAT   1650   72 71  200/ 12/ 16 1014.7    3/ 5   2/ 8
41 SE CHARLESTON 1650   72 72  360/  4/  6 1013.9    2/ 4   2/ 4

$$



USA.gov is the U.S. government's official web portal to all federal, state and local government web resources and services.